Location: Otis Wastewater Treatment Facility
(38.5345°N, 99.0440°W)
Time: 03:32:55
(UTC+00:00)

Daily predictions for brighter satellites

Satellite Brightness Start Highest point End
(mag) Time Altitude Azimuth Time Altitude Azimuth Time Altitude Azimuth
Envisat 3.3 00:10:51 10° SE 00:15:38 43° ENE 00:20:26 10° N
Cosmos 1271 Rocket 3.0 00:14:33 10° N 00:18:33 81° W 00:22:33 10° S
Cosmos 1300 4.4 00:24:30 10° ESE 00:26:26 14° E 00:28:23 10° NE
Cosmos 2058 Rocket 3.0 00:22:44 10° S 00:27:04 83° E 00:31:27 10° N
USA 116 4.4 00:24:51 10° NE 00:27:42 26° E 00:30:45 10° SSE
Meteor 2-10 3.9 00:23:03 10° S 00:28:06 73° E 00:33:07 10° NNE
Cosmos 489 Rocket 4.5 00:22:06 10° SSW 00:28:18 87° ESE 00:34:33 10° NNE
H-2A R/B 3.4 00:26:01 10° S 00:29:50 62° W 00:33:45 10° NNW
BREEZE-M DEB (TANK) 3.0 00:24:18 10° SW 00:31:18 81° NW 00:34:01 10° NE
Unknown 2.6 00:34:04 10° NW 00:36:43 75° SW 00:39:22 10° SE
ATLAS 3B R/B 3.8 00:32:35 10° SSE 00:37:22 21° ESE 00:41:46 11° ENE
Cosmos 1833 Rocket 3.2 00:34:04 10° N 00:39:15 37° ENE 00:44:24 10° SE
Cosmos 1461 3.9 00:37:10 10° N 00:40:43 27° NE 00:43:40 14° ESE
Okean-O 3.4 00:41:13 10° S 00:45:34 56° W 00:49:56 10° NNW
COSMO-SKYMED 1 2.5 00:41:26 10° NNE 00:45:47 87° ESE 00:50:07 10° SSW
CENTAUR R/B 3.4 00:41:41 10° SSE 00:46:05 23° ESE 00:49:56 13° ENE
CZ-4 R/B 1.5 00:42:53 10° SSE 00:46:59 61° ENE 00:51:09 10° N
COBE Rocket 4.3 00:42:18 10° N 00:47:26 72° WNW 00:52:25 10° SSW
Cosmos 839 Rocket 4.2 00:43:16 10° NNW 00:49:35 84° ENE 00:57:03 10° SSE
Cosmos 1703 3.2 00:47:19 10° N 00:51:16 89° WSW 00:55:09 10° S
Cosmos 1242 Rocket 3.7 00:53:31 10° NNW 00:57:04 47° W 01:00:35 10° S
Ariane Rocket 3.8 00:53:59 10° SE 00:58:23 30° ENE 01:02:48 10° N
Cosmos 44 3.7 00:59:04 10° S 01:03:44 40° ESE 01:06:29 21° ENE
CSL-04 Debris 4.1 00:58:37 10° SSE 01:04:02 75° ENE 01:09:32 10° N
Abrixas rocket 4.2 01:03:28 10° WNW 01:05:49 20° NNW 01:07:21 14° NNE
Cosmos 1908 4.4 01:04:44 10° SSW 01:08:29 46° W 01:12:15 10° N
Cosmos 2082 Rocket 2.5 01:03:12 10° N 01:08:38 44° ENE 01:12:20 19° SE
MINOTAUR IV R/B 4.5 01:04:23 10° NNW 01:08:57 81° ENE 01:13:30 10° SSE
USA 238 DEB 3.7 01:02:23 10° SSW 01:09:04 86° WNW 01:15:59 10° NNE
USA 238 3.7 01:02:30 10° SSW 01:09:10 87° WNW 01:16:05 10° NNE
OAO 3 Rocket 4.0 01:08:34 10° W 01:13:15 45° SSW 01:16:02 22° SE
Unknown 4.4 01:11:51 10° NNW 01:14:41 25° NNE 01:14:41 25° NNE
Shenzhou-11 Module 1.8 01:13:40 10° WNW 01:16:24 62° NNE 01:16:24 62° NNE
Meteor 2-1 Rocket 4.4 01:12:42 10° SSE 01:17:51 43° E 01:23:04 10° NNE
Cosmos 1076 Rocket 3.7 01:13:46 10° N 01:17:59 48° E 01:20:34 21° SE
Delta 2 Rocket 3.3 01:15:50 10° WSW 01:19:12 45° S 01:19:41 42° SE
Cosmos 1812 Rocket 3.5 01:16:31 10° S 01:20:56 90° NNW 01:25:24 10° N
Cosmos 1459 Rocket 4.3 01:15:44 10° N 01:21:37 42° ENE 01:26:39 14° SE
COSMOS 2406 4.4 01:17:48 10° NW 01:23:15 44° WSW 01:28:36 10° S
BREEZE-M DEB (TANK) 3.8 01:13:33 10° WSW 01:25:56 63° NW 01:28:09 27° NE
Unknown 3.1 01:25:34 10° NW 01:28:39 63° SW 01:28:53 61° SSW
YAOGAN 1 3.3 01:26:48 10° S 01:31:02 54° W 01:35:16 10° NNW
NOSS 3-2 (A) 3.6 01:27:08 10° SW 01:32:47 69° NW 01:39:09 10° NNE
In-Cosmos 22 Rocket 4.4 01:28:14 10° N 01:33:26 45° ENE 01:34:10 42° E
Cosmos 2058 3.4 01:30:50 10° N 01:34:01 42° NE 01:34:01 42° NE
Cosmos 1727 Rocket 4.3 01:32:11 10° SSW 01:38:18 68° W 01:44:28 10° N
Gbstr 26 Del rocket 4.1 01:32:28 10° NW 01:38:49 72° NE 01:41:48 39° ESE
Cosmos 1763 Rocket 4.1 01:37:27 10° S 01:41:07 38° SE 01:41:07 38° SE
NOSS 3-3 (A) 4.5 01:37:35 10° NNW 01:45:14 69° NE 01:49:08 34° SE
NOSS 3-3 (C) 4.5 01:37:42 10° NNW 01:45:19 69° NE 01:49:10 35° SE
Cosmos 2278 Rocket 4.0 01:40:30 10° WSW 01:45:25 30° WNW 01:50:23 10° N
Cosmos 2297 3.6 01:42:27 10° SSW 01:48:08 89° WNW 01:52:59 15° NNE
CZ-3 Stage 3 3.0 01:45:28 10° WSW 01:47:48 18° SSW 01:47:48 18° SSW
Cosmos 2173 Rocket 3.8 01:42:54 10° N 01:49:07 70° E 01:53:10 22° SSE
Cosmos 1939 Rocket 3.4 01:50:21 27° S 01:52:18 58° W 01:56:19 10° NNW
H-2A R/B 3.7 01:56:38 21° NNE 01:56:38 21° NNE 01:58:40 10° N
Lacrosse 5 1.7 01:50:09 10° NW 01:55:11 75° NE 01:55:11 75° NE
Cosmos 1802 Rocket 3.9 01:49:14 10° N 01:55:38 65° E 01:57:20 48° SE
NOSS 3-2 (C) 3.5 01:52:25 10° SW 01:58:05 70° NW 02:02:01 24° NNE
BREEZE M DEB (TANK) 2.9 01:55:27 10° WNW 01:58:37 83° SW 01:59:33 61° SE
Cosmos 1300 4.4 01:58:17 10° SW 02:01:45 33° WNW 02:05:14 10° NNW
ADEOS Rocket 3.4 01:57:17 10° NNE 02:04:45 57° E 02:11:32 10° S
Cosmos 1000 Rocket 4.5 01:58:40 10° S 02:04:50 80° W 02:11:07 10° N
Cosmos 1898 Rocket 4.1 02:03:05 10° NNW 02:06:50 45° N 02:06:50 45° N
SL-24 R/B 4.5 02:03:02 10° N 02:08:40 82° WNW 02:13:22 10° SSW
MOS 1 4.2 02:13:28 74° S 02:14:00 83° WSW 02:19:41 10° NNW
Cosmos 2100 Rocket 4.2 02:09:16 10° NNW 02:15:23 66° W 02:21:26 10° S
SJ 16-02 3.9 02:15:10 10° N 02:15:36 13° N 02:15:36 13° N
Cosmos 1833 Rocket 4.5 02:18:14 10° NW 02:23:00 29° WSW 02:27:44 10° SSW
ATLAS 3B R/B 2.8 02:20:41 10° SW 02:27:25 69° NW 02:29:06 50° N
Cosmos 2016 Rocket 4.1 02:27:24 10° N 02:33:14 72° NW 02:33:14 72° NW
CENTAUR R/B 3.0 02:30:18 10° SW 02:36:02 55° NW 02:37:13 48° NNW
Cosmos 2082 Rocket 4.2 02:47:54 10° NW 02:52:23 24° W 02:54:17 20° SW
H-2A R/B 4.1 02:23:17 10° WSW 03:07:48 63° S 03:08:03 63° S
Cosmos 2237 Rocket 3.9 09:35:06 29° ENE 09:35:06 29° ENE 09:38:24 10° NE
NOSS 3-4 (A) 4.3 09:48:12 44° ENE 09:48:12 44° ENE 09:52:34 10° NE
NOSS 3-4 (C) 4.3 09:48:15 44° ENE 09:48:15 44° ENE 09:52:40 10° NE
ATLAS 3B R/B 3.8 09:57:10 24° N 10:00:40 40° NE 10:07:02 10° ESE
CENTAUR R/B 3.7 10:03:48 18° NNW 10:10:01 56° NE 10:18:33 10° SE
IDEFIX/ARIANE 42P 3.0 10:20:26 10° NNE 10:24:31 55° NNE 10:24:31 55° NNE
ATLAS 2AS CENTAUR R/B 3.1 10:26:24 55° WNW 10:26:39 55° NW 10:34:33 10° NNE
MSX 4.3 10:21:16 10° NNE 10:26:56 59° E 10:32:02 13° S
SL-16 R/B 3.5 10:23:08 11° S 10:28:09 38° ESE 10:33:19 10° NE
NOSS 0 Rocket 4.1 10:29:31 55° NNW 10:29:31 55° NNW 10:34:42 10° NNE
Centaur D AC-28 3.7 10:30:19 19° SSE 10:30:42 19° SSE 10:34:40 10° ESE
USA 238 DEB 4.1 10:35:50 46° SW 10:35:50 46° SW 10:41:41 10° S
USA 238 4.1 10:35:52 47° SW 10:35:52 47° SW 10:41:47 10° S
Cosmos 2184 Rocket 3.9 10:34:47 20° S 10:39:15 90° E 10:45:34 10° N
Cosmos 407 Rocket 3.9 10:40:56 48° NNW 10:40:56 48° NNW 10:44:46 10° NNE
Cosmos 2278 Rocket 2.0 10:40:12 70° NW 10:40:50 80° WSW 10:46:28 10° SSE
Cosmos 1190 Rocket 4.0 10:41:37 67° NNW 10:41:37 67° NNW 10:46:24 10° NNE
Cosmos 2333 Rocket 4.0 10:51:16 17° NNW 10:51:16 17° NNW 10:53:16 10° N
BREEZE-M DEB (TANK) 4.3 10:57:27 20° NE 10:57:27 20° NE 10:58:50 10° E
Meteor 1-4 Rocket 3.9 10:59:09 30° N 10:59:09 30° N 11:01:01 10° N
NOSS 3-2 (A) 4.3 10:56:02 38° W 10:58:03 45° WSW 11:06:00 10° S
USA 267 4.0 10:53:21 10° NNE 10:59:09 35° NNW 11:00:40 32° NW
SJ-6F 4.4 10:55:23 10° NNE 10:59:33 79° ESE 11:02:11 22° S
Cosmos 2219 Rocket 4.1 11:06:04 14° NNW 11:06:04 14° NNW 11:07:34 10° NNW
H-2A R/B 2.5 11:01:01 10° N 11:05:09 59° WNW 11:05:09 59° WNW
Cosmos 1726 4.0 11:04:10 10° NNE 11:07:29 31° ENE 11:10:48 10° SE
Cosmos 2074 Rocket 4.1 11:04:53 22° SW 11:08:46 50° W 11:14:48 10° N
Cosmos 1606 Rocket 3.5 11:06:07 10° N 11:10:28 85° E 11:14:48 10° S
USA 32 4.5 11:11:45 38° WNW 11:11:45 38° WNW 11:16:10 10° NNW
Cosmos 1953 2.1 11:08:57 10° NNW 11:12:57 71° W 11:16:55 10° S
GP-B 3.9 11:10:30 10° SSE 11:14:48 52° E 11:19:07 10° N
In-Cosmos 22 4.2 11:09:30 10° S 11:14:49 78° E 11:20:18 10° NNE
Cosmos 1707 4.1 11:17:43 24° NNW 11:17:43 24° NNW 11:19:37 10° N
Cosmos 1140 Rocket 3.7 11:15:27 38° WSW 11:16:39 44° WNW 11:21:35 10° N
Cosmos 2237 Rocket 2.9 11:16:59 31° WNW 11:17:18 31° WNW 11:22:20 10° N
Cosmos 1954 Rocket 4.0 11:14:27 22° SW 11:17:49 61° WNW 11:22:59 10° N
ADEOS 4.3 11:13:33 10° N 11:18:03 32° WNW 11:18:03 32° WNW
Cosmos 1356 3.7 11:15:49 10° N 11:19:16 67° E 11:22:42 10° SSE
Cosmos 44 3.7 11:21:29 33° SW 11:21:29 33° SW 11:24:59 10° S
CZ-4B R/B 2.6 11:17:42 10° N 11:21:38 82° WNW 11:25:22 10° SSW
Meteor 1-31 Rocket 2.5 11:18:13 10° N 11:22:01 76° WNW 11:25:47 10° SSW
NOSS 3-2 (C) 4.4 11:17:52 17° NW 11:23:37 46° WSW 11:31:36 10° S
Cosmos 1674 3.3 11:24:29 10° S 11:28:06 55° E 11:31:45 10° NNE
PAYLOAD A 4.2 11:24:38 10° N 11:29:18 45° WNW 11:34:06 10° SW
USA 234 3.2 11:24:28 10° SE 11:31:01 83° SW 11:37:37 10° NW
Cosmos 2369 Rocket 4.3 11:29:58 10° N 11:34:32 25° ENE 11:39:03 10° ESE
Okean 1-7 Rocket 3.6 11:32:31 10° SSW 11:36:52 56° W 11:41:18 10° N
Cosmos 1484 Rocket 3.1 11:33:58 10° NNE 11:37:47 69° E 11:41:38 10° S
Cosmos 44 Rocket 3.5 11:33:51 10° NNW 11:38:33 68° ENE 11:43:12 10° SE
Milstar 3 4.0 11:32:38 11° SW 11:38:35 32° SSE 11:44:42 10° ESE
COSMO-SKYMED 1 3.3 11:34:41 10° SSE 11:38:55 56° ENE 11:43:10 10° N
Cosmos 2228 3.1 11:37:28 10° NNW 11:41:33 47° W 11:45:36 10° SSW
PSLV R/B 2.8 11:41:09 40° WNW 11:41:49 57° N 11:44:25 10° ENE
RESURS DK-1 3.3 11:44:31 22° W 11:46:00 28° WNW 11:49:36 10° N
CZ-4B R/B 4.3 11:42:03 10° NNE 11:47:08 46° E 11:52:13 10° S
Cosmos 1726 Rocket 3.9 11:46:17 10° NNW 11:50:20 40° W 11:54:22 10° SSW
BREEZE-M DEB (TANK) 4.0 11:51:22 12° SW 11:51:22 12° SW 11:52:02 10° SSW
ATLAS 3B R/B 3.1 11:45:06 10° NW 11:51:19 41° WSW 11:57:42 10° S
Helios 1A Rocket 3.6 11:47:39 10° NNE 11:51:46 61° ESE 11:55:52 10° S
CZ-2C R/B 3.1 11:47:12 10° N 11:51:52 35° WNW 11:56:27 10° SW
SL-8 R/B 3.7 11:47:53 12° SW 11:52:22 88° SE 11:57:10 10° ENE
